Regional Weather Roundup
Issued by NWS State College, PA

Home | Current Version | Previous Version | Text Only | Print | Product List | Glossary Off
Versions: 1 2 3 4 5 6 7 8 9 10 11 12 13 14 15 16 17 18 19 20 21 22 23 24 25 26 27 28 29 30 31 32 33 34 35 36 37 38 39 40 41 42 43 44 45 46 47 48 49 50

000
ASUS41 KCTP 141810
RWRCTP

REGIONAL WEATHER ROUNDUP
NATIONAL WEATHER SERVICE STATE COLLEGE PA
100 PM EST THU DEC 14 2017

Note: "fair" indicates few or no clouds below 12,000 feet with no
significant weather and/or obstructions to visibility.

* = STATION THAT DOES NOT REPORT PRECIPITATION /E.G. RAIN...SNOW...ETC/
    THUNDER OR FOG.

PAZ002>004-007>009-013>016-020>023-029>032-141900-
WESTERN PENNSYLVANIA

CITY           SKY/WX    TMP DP  RH WIND       PRES   REMARKS
ERIE           CLOUDY    22  13  68 VRB6      29.98R WCI  14
MEADVILLE      PTSUNNY   20  11  68 W6        29.92F WCI  12
FRANKLIN*      PTSUNNY   21   9  59 NW9       29.92R WCI  11
NEW CASTLE     CLOUDY    27  13  55 W10G18    29.96F
BEAVER COUNTY  MOSUNNY   25  12  58 NW5G16    29.94S
BUTLER*        MOSUNNY   26  12  55 NW9       29.94S
PITTSBURGH INT PTSUNNY   27  14  58 N10       29.93F
PITTSBURGH     PTSUNNY   24  10  55 N16G24    29.91F WCI  11
INDIANA*       SUNNY     23  10  58 N12G21    29.93R WCI  12
LATROBE        MOSUNNY   25   9  50 N18       29.92S WCI  11
WASHINGTON CO* FLURRIES  26  17  68 N10       29.95S
$$

PAZ004>006-010>012-017>019-024>028-033>037-041-042-045-046-049>053-141900-
CENTRAL PENNSYLVANIA

CITY           SKY/WX    TMP DP  RH WIND       PRES   REMARKS
BRADFORD         N/A     14   4  64 NW16G31   29.81R WCI  -2
DUBOIS         CLOUDY    19   7  59 NW14G23   29.85R WCI   6
CLEARFIELD     MIX PCPN  22   8  55 NW18G26   29.85R WCI   7
JOHNSTOWN      CLOUDY    19  12  74 NW10      29.81R WCI   7
ALTOONA        CLOUDY    25  14  63 NW13      29.85R WCI  14
STATE COLLEGE  MOSUNNY   23   9  54 NW12G23   29.85R WCI  12
WILLIAMSPORT   CLOUDY    29  10  45 NW16G22   29.84R
SELINSGROVE    SUNNY     29  11  47 NW14G24   29.86R
FT INDIANTOWN  PTSUNNY   30  13  48 W13G21    29.86R
CAPITAL CITY   MOSUNNY   33  11  39 NW13      29.88R
HARRISBURG     MOSUNNY   33  17  51 NW13      29.87R
YORK           PTSUNNY   34  16  47 NW12      29.87R
$$

PAZ038>040-043-044-047-048-054-055-060>062-067>071-141900-
EASTERN PENNSYLVANIA

CITY           SKY/WX    TMP DP  RH WIND       PRES   REMARKS
SCRANTON       PTSUNNY   22  11  62 NW17G25   29.79R WCI   8
MOUNT POCONO   MIX PCPN  19  10  68 W24G35    29.69R WCI   2
ALLENTOWN      CLOUDY    30  15  53 NW13      29.81R
QUAKERTOWN*    PTCLDY    28  16  59 NW8       29.81R
READING        MOSUNNY   30  19  63 W18       29.84R
LANCASTER      MOSUNNY   30  18  60 NW14      29.86R
COATESVILLE    PTCLDY    30  18  59 NW10G20   29.85R
POTTSTOWN      MOSUNNY   29  17  61 NW10      29.85R
BLUE BELL      MOSUNNY   32  18  55 NW5       29.84R
DOYLESTOWN     MOSUNNY   30  16  56 NW9G21    29.80R
WILLOW GROVE   NOT AVBL
NORTH PHILA    MOSUNNY   34  18  52 NW12      29.84R
PHILADELPHIA   MOSUNNY   34  19  54 NW9G20    29.85R
$$




USA.gov is the U.S. government's official web portal to all federal, state and local government web resources and services.